Showing default

DROID.002, 63223

Orbit data source: Space-Track

DROID.002, 63223 is a payload satellite owned by Turion Space (US) in SSO that was launched on Sat, 15 Mar 2025 UTC via an FALCON 9 launch vehicle from the Air Force Western Test Range (AFWTR). Payload-class satellites include a variety of spacecraft equipped with specific instruments for various scientific and technological missions. These include communications satellites like Starlink; space stations such as the ISS; scientific satellites like the Hubble; Earth observation satellites from companies like Planet Labs, Umbra, and HawkEye 360; GPS; miniature CubeSats for education and research; and military/defense satellites.

Loading next visibility...
Identifier
63223, 2025-052P
Orbit
SSO
Country
Flag of USUS
Related business
Manufacturer
Turion Space
Mission
Operational Commercial Technology
Bus & Motor
DROID, Unknown motor
Mass
90 kg wet, 90 kg dry
Launch date (UTC)
2025-03-15 (1 year ago)
Launch vehicle
FALCON 9
Launch site
Air Force Western Test Range (AFWTR)
Object type
Payload
Rocket body
Debris
Shape & HBR
Box + 2 Pan, 0.8 m
Radar Cross Section
0.892 m², Large (>1 m²)

Expand to show TLE details & history
Last TLE update: 7 hours ago

TLE from 7 hours ago
0 DROID.002
1 63223U 25052P   26175.16964015  .00005130  00000-0  21900-3 0  9997
2 63223  97.3931  67.9130 0005788 105.1761 255.0116 15.23316177 70930
Epoch: 2026-06-24T04:04Z
TLE epoch observation values (Epoch: 2026-06-24T04:04:16.908Z)
Latitude
-0.0001°
Longitude
94.51186°
Altitude
499.973 km
Speed
7.614 km/s
True Right ascension
04h 31m 39s
True Declination
0° 00' 00"
Sunlit
Object was in daylight at epoch
Visualization orbit readout
Latitude
Unknown
Longitude
Unknown
Altitude
Unknown
Speed
Unknown
Apparent Right ascension
Unknown
Apparent Declination
Unknown
Sunlit
N/A
Visualization observer readout
Local Sidereal Time
21:55:06
Azimuth
Unknown
Elevation
Unknown
Doppler factor
Unknown
Orbital elements
Apogee altitude
496.784 km
Perigee altitude
488.83 km
Semi-major axis
6,870.944 km
Eccentricity
0.00058
Inclination
97.3931°
RAAN
67.913°
Arg. of periapsis
105.1761°
True anomaly
254.94754°
Mean anomaly
255.0116°
Eccentric anomaly
254.97957°
Mean motion
3.81082 °/min
Orbital period
94.47 mins
BSTAR
0.000219
Loading maneuver chart data...
Computing Atmospheric mass density...
Loading historical data...
Loading historical data...
Loading historical data...
Loading historical data...
Loading historical data...
Loading historical data...
Loading historical data...

Documentation

Showing up to 5 results
|